weather.gov     
National Weather Service

Regional Weather Roundup
NWS Homepage
This page is being discontinued on March 12, 2014.
The same data is available at this site. Please update your bookmarks.
Thank you, and we apologize for the inconvenience.
Please send an email to SR-SRH.Webmaster@noaa.gov with any concerns.


Current Version
Previous Version:    01  02  03  04  05  06  07  08  09  10  11  12  13  14  15  16  17  18  19  20  21  22  23  24  25  26  27  28  29  30  
   31  32  33  34  35  36  37  38  39  40  41  42  43  44  45  46  47  48  49  50  51  52  53  54  55  56  57  58  59  60  
[Printable]
145
ASUS44 KFWD 301603
RWRTX
NORTH TEXAS HOURLY WEATHER ROUNDUP
NATIONAL WEATHER SERVICE FORT WORTH TX
1100 AM CDT THU OCT 30 2014

NOTE: "FAIR" INDICATES FEW OR NO CLOUDS BELOW 12,000 FEET WITH NO
SIGNIFICANT WEATHER AND/OR OBSTRUCTIONS TO VISIBILITY.

TXZ118-119-301700-
DALLAS/FORT WORTH METROPLEX

CITY           SKY/WX    TMP DP  RH WIND       PRES   REMARKS
DFW AIRPORT    MOSUNNY   68  47  46 S10       30.16F
DALLAS LOVE    SUNNY     68  48  48 S9        30.17F
FTW MEACHAM    SUNNY     70  48  45 S13       30.16S
DAL-EXECUTIVE  SUNNY     69  47  45 S8        30.17S
FTW-ALLIANCE   MOSUNNY   68  45  43 S8G16     30.16S
FTW-NAS-JRB    MOSUNNY   72  46  39 S10       30.20F
ARLINGTON      SUNNY     69  45  41 S13       30.17F
GRAND PRAIRIE  SUNNY     68  48  49 MISG      30.18F
ADDISON        SUNNY     68  46  45 S12       30.17F
MESQUITE       SUNNY     66  46  48 S7        30.19S
LANCASTER      SUNNY     66  46  48 S6        30.19S
$$

TXZ091>094-102>105-117-120-121-131>134-301700-
NORTH CENTRAL TEXAS

CITY           SKY/WX    TMP DP  RH WIND       PRES   REMARKS
SHRMAN/DENISON SUNNY     69  49  50 S12G17    30.17F
GAINESVILLE    SUNNY     67  47  48 S13       30.18S
BOWIE          SUNNY     68  49  50 S13       30.16S
BRIDGEPORT     MOSUNNY   70  52  51 S8        30.18S
DECATUR        SUNNY     66  46  47 S14       30.16F
DENTON         SUNNY     68  47  46 S13       30.16F
MCKINNEY       SUNNY     67  48  50 S12       30.17S
GREENVILLE     SUNNY     68  46  45 S9        30.18F
ROCKWALL       SUNNY     67  48  51 SW15G21   30.17S
TERRELL        SUNNY     68  48  48 S8        30.18F
WAXAHACHIE     SUNNY     67  48  50 S10       30.19F
CLEBURNE       SUNNY     66  50  55 S12       30.19S
GRANBURY       PTSUNNY   69  52  55 S10       30.19S
$$

TXZ083>090-098>101-113>116-127>130-139>142-154-155-301700-
WESTERN NORTH TEXAS

CITY           SKY/WX    TMP DP  RH WIND       PRES   REMARKS
WICHITA FALLS  SUNNY     68  50  52 SW14      30.14S
WF-KICKAPOO    SUNNY     68  49  50 SW9       30.16S
VERNON         SUNNY     70  50  49 S6        30.15S
ABILENE        SUNNY     71  59  65 S10       30.15R
ABILENE-DYESS  SUNNY     73  61  65 S13       30.14R
BRECKENRIDGE   MOSUNNY   72  57  58 SW9       30.15F HAZE
MINERAL WELLS  CLOUDY    67  50  54 S8G17     30.15F
STEPHENVILLE   SUNNY     66  55  66 S7        30.19F
COMANCHE       SUNNY     70  62  75 S9        30.16F
COLEMAN        PTSUNNY   67  60  80 S12       30.17S
BRADY          PTSUNNY   68  61  77 S8        30.16S
$$

TXZ143>147-156>162-174-175-301700-
CENTRAL TEXAS

CITY           SKY/WX    TMP DP  RH WIND       PRES   REMARKS
WACO           PTSUNNY   66  49  54 S9        30.18S
WACO-TSTC      PTSUNNY   64  52  63 S6        30.18S
WACO-MCGREGOR  MOSUNNY   68  48  49 SE12      30.19F
CORSICANA      SUNNY     67  46  47 SE9       30.19S
MEXIA          MOSUNNY   65  48  53 SE8       30.18R
HEARNE         MOSUNNY   68  49  49 SE6       30.18F
CAMERON        PTSUNNY   67  50  53 SE7       30.18S
TEMPLE         PTSUNNY   66  46  48 SE7       30.17S
KILLEEN        SUNNY     67  52  58 SE9       30.17S
KILLEEN-SKYLRK PTSUNNY   66  48  52 SE6       30.15S
FORT HOOD      PTSUNNY   69  49  48 SE8       30.17S
GATESVILLE     MOSUNNY   64  54  68 S7        30.19F
HAMILTON       CLOUDY    69  57  66 SE9G20    30.18S
LAMPASAS       MOSUNNY   68  62  79 E5        30.16S
$$

TXZ095>097-106>112-122>126-135>138-148>153-164>167-301700-
EAST TEXAS

CITY           SKY/WX    TMP DP  RH WIND       PRES   REMARKS
PARIS          SUNNY     64  45  48 S8        30.19F
SULPHUR SPRNGS SUNNY     68  45  43 S8        30.19F
MOUNT PLEASANT SUNNY     65  48  53 S5        30.20S
MINEOLA        SUNNY     66  48  52 S5        30.19F
TYLER          SUNNY     66  46  48 SE8       30.19R
LONGVIEW       SUNNY     65  49  56 SE7       30.18S
MARSHALL       SUNNY     68  50  52 S5        30.20F
ATHENS         SUNNY     64  46  52 S6        30.18S
PALESTINE      SUNNY     66  48  51 SE5       30.20S
JACKSONVILLE   SUNNY     66  43  43 SE5       30.20S
HENDERSON      SUNNY     65  45  47 SE5       30.20S
NACOGDOCHES    SUNNY     64  46  52 SE7       30.19S
LUFKIN         SUNNY     69  48  47 SE8       30.18S
$$

SUPPLEMENTAL OBSERVATIONS (CENTRAL)

CITY           SKY/WX    TMP DP  RH WIND       PRES   REMARKS
$$

SUPPLEMENTAL OBSERVATIONS (WEST)

CITY           SKY/WX    TMP DP  RH WIND       PRES   REMARKS
$$

SUPPLEMENTAL OBSERVATIONS (EAST)

CITY           SKY/WX    TMP DP  RH WIND       PRES   REMARKS
$$

SUPPLEMENTAL OBSERVATIONS ARE A COLLECTION OF AUTOMATED INSTRUMENTS
THAT ARE MAINTAINED BY A VARIETY OF FEDERAL AND STATE AGENCIES.
CERTAIN ELEMENTS...SUCH AS HUMIDITY VALUES AND SUSTAINED WIND
SPEEDS...MAY BE APPROXIMATED.





U.S. Dept. of Commerce
NOAA National Weather Service
1325 East West Highway
Silver Spring, MD 20910
E-mail: w-nws.webmaster@noaa.gov
Page last modified: May 16, 2007
NATIONAL WEATHER SERVICE: for Safety, for Work, for Fun - FOR LIFE